Regional Weather Roundup
Issued by NWS Albany, NY

Home | Current Version | Previous Version | Text Only | Print | Product List | Glossary On
Versions: 1 2 3 4 5 6 7 8 9 10 11 12 13 14 15 16 17 18 19 20 21 22 23 24 25 26 27 28 29 30 31 32 33 34 35 36 37 38 39 40 41 42 43 44 45 46 47 48 49 50
000
ASUS41 KALY 310010
RWRALY

NEW YORK STATE HOURLY WEATHER ROUNDUP
NATIONAL WEATHER SERVICE ALBANY NY
800 PM EDT SAT AUG 30 2014

NOTE: "FAIR" INDICATES FEW OR NO CLOUDS BELOW 12,000 FEET WITH NO
SIGNIFICANT WEATHER AND/OR NO OBSTRUCTIONS TO VISIBILITY.

NYZ032-033-038>043-046>054-057>066-NYZ062>081-310100-
EAST


CITY           SKY/WX    TMP DP  RH WIND       PRES   REMARKS
ALBANY         PTCLDY    74  59  59 S12G18    30.09S
GLENS FALLS    CLEAR     71  60  68 S7        30.07S
POUGHKEEPSIE   CLOUDY    74  63  68 S6        30.13S
NEWBURGH       CLOUDY    73  64  73 SW9       30.16S
MONTGOMERY     CLOUDY    73  61  65 S7        30.13F
WHITE PLAINS   MOCLDY    71  64  78 S6        30.16F
ISLIP          CLOUDY    72  63  73 S10       30.16F
NEW YORK CITY  CLOUDY    74  65  73 S14G20    30.15F
CENTRAL PARK   CLOUDY    74  63  68 CALM      30.18S
$$

NYZ005>009-017-018-044>046-055-056-310100-
CENTRAL


CITY           SKY/WX    TMP DP  RH WIND       PRES   REMARKS
FULTON         MOCLDY    75  65  70 VRB3      29.99S
SYRACUSE       MOCLDY    75  65  70 SE9       30.00S
ROME           MOCLDY    72  64  76 SE7       30.05S
ELMIRA         CLOUDY    73  66  78 S6        30.07R
BINGHAMTON     CLOUDY    68  62  81 S9G16     30.11F
MONTICELLO     CLOUDY    66  63  88 S6        30.18S
$$

NYZ026>034-041>043-310100-
NORTH


CITY           SKY/WX    TMP DP  RH WIND       PRES   REMARKS
WATERTOWN      CLOUDY    77  62  59 S12G21    29.95F
FORT DRUM      NOT AVBL
MASSENA        MOCLDY    73  63  70 S3        29.95S
SARANAC LAKE   PTCLDY    70  58  65 S9        30.04R
PLATTSBURGH    CLEAR     72  61  68 S7        29.98S
$$

NYZ001>004-010>016-019>021-310100-
WEST


CITY           SKY/WX    TMP DP  RH WIND       PRES   REMARKS
NIAGARA FALLS  MOCLDY    81  66  60 SW10      29.92S
BUFFALO        CLOUDY    77  67  71 S8        29.94S
DUNKIRK        MOCLDY    80  68  66 S7        29.95S
JAMESTOWN      PTCLDY    75  66  73 S8        30.02S
WELLSVILLE     MOCLDY    72  65  78 S10       30.09R
ROCHESTER      MOCLDY    80  68  66 S3        29.95S
PENN YAN       MOCLDY    74  65  73 S12       30.03R
$$

             KEY
       WCI = WIND CHILL INDEX
       VSB = VISIBILITY
       HX  = HEAT INDEX
$$


USA.gov is the U.S. government's official web portal to all federal, state and local government web resources and services.